FW3311 Weather Reports


Display with metric or nautical units.
time (UTC)temp
F
wind
direction
speed
MPH
gust
MPH
rain 1hr
in
rain 24hr
in
rain mn
in
humidity
%
barometer
mb
20260906183004 77 90 0.0 1.0 0.00 0.00 0.00 70 1019.8
20260906182459 76 234 0.0 1.0 0.00 0.00 0.00 74 1019.8
20260906181954 75 221 1.0 1.0 0.00 0.00 0.00 77 1019.9
20260906181450 75 205 0.0 0.0 0.00 0.00 0.00 77 1020.1
20260906180946 75 79 1.0 1.0 0.00 0.00 0.00 80 1020.1
20260906180441 75 194 2.0 2.0 0.00 0.00 0.00 76 1020.1
20260906175938 74 224 1.0 1.0 0.00 0.00 0.00 77 1020.1
20260906175433 75 122 1.0 1.0 0.00 0.00 0.00 81 1020.4
20260906174932 75 242 1.0 1.0 0.00 0.00 0.00 77 1020.2
20260906174426 74 220 1.0 1.0 0.00 0.00 0.00 79 1020.3
20260906173921 74 237 0.0 1.0 0.00 0.00 0.00 80 1020.2
20260906173416 74 183 1.0 1.0 0.00 0.00 0.00 78 1020.2
20260906172915 74 77 0.0 1.0 0.00 0.00 0.00 83 1020.2
20260906172412 74 252 0.0 0.0 0.00 0.00 0.00 80 1020.2
20260906171907 74 239 1.0 1.0 0.00 0.00 0.00 80 1020.4
20260906171402 74 203 1.0 1.0 0.00 0.00 0.00 80 1020.2
20260906170857 74 239 1.0 1.0 0.00 0.00 0.00 81 1020.2
20260906170353 74 243 0.0 1.0 0.00 0.00 0.00 83 1020.3
20260906165850 73 257 1.0 1.0 0.00 0.00 0.00 82 1020.2
20260906165349 73 158 1.0 1.0 0.00 0.00 0.00 81 1020.1
20260906164844 73 157 1.0 2.0 0.00 0.00 0.00 81 1020.3
20260906164343 73 227 1.0 1.0 0.00 0.00 0.00 83 1020.4
20260906163839 73 256 0.0 0.0 0.00 0.00 0.00 83 1020.5
20260906163335 73 229 1.0 1.0 0.00 0.00 0.00 84 1020.6
20260906162832 73 236 0.0 0.0 0.00 0.00 0.00 82 1020.5
20260906162332 73 238 0.0 0.0 0.00 0.00 0.00 81 1020.6
20260906161827 72 243 0.0 0.0 0.00 0.00 0.00 82 1020.6
20260906161326 72 248 0.0 0.0 0.00 0.00 0.00 84 1020.6
20260906160825 71 156 1.0 1.0 0.00 0.00 0.00 86 1020.7
20260906160319 71 205 0.0 0.0 0.00 0.00 0.00 82 1020.6
20260906155817 71 233 0.0 1.0 0.00 0.00 0.00 85 1020.5
20260906155312 70 76 2.0 2.0 0.00 0.00 0.00 84 1020.4
20260906154808 70 118 0.0 1.0 0.00 0.00 0.00 88 1020.3
20260906154302 70 216 0.0 1.0 0.00 0.00 0.00 88 1020.3
20260906153801 70 199 0.0 1.0 0.00 0.00 0.00 87 1020.4
20260906153255 69 242 0.0 1.0 0.00 0.00 0.00 90 1020.4
20260906152750 69 230 0.0 0.0 0.00 0.00 0.00 90 1020.6
20260906152245 69 182 0.0 0.0 0.00 0.00 0.00 90 1020.6
20260906151744 68 213 0.0 0.0 0.00 0.00 0.00 91 1020.5
20260906151240 68 97 1.0 1.0 0.00 0.00 0.00 90 1020.7
20260906150735 68 220 0.0 0.0 0.00 0.00 0.00 92 1020.7
20260906150231 67 220 0.0 0.0 0.00 0.00 0.00 93 1020.6
20260906145730 67 225 0.0 0.0 0.00 0.00 0.00 95 1020.6
20260906145229 65 225 0.0 0.0 0.00 0.00 0.00 96 1020.5
20260906144724 65 223 0.0 0.0 0.00 0.00 0.00 99 1020.7
20260906144219 64 202 0.0 0.0 0.00 0.00 0.00 99 1020.5
20260906143718 63 226 0.0 0.0 0.00 0.00 0.00 99 1020.7
20260906143216 63 231 0.0 0.0 0.00 0.00 0.00 99 1020.6
20260906142715 63 243 1.0 1.0 0.00 0.00 0.00 99 1020.9
20260906142211 62 99 1.0 1.0 0.00 0.00 0.00 99 1020.7
20260906141709 62 250 0.0 0.0 0.00 0.00 0.00 99 1020.7
20260906141204 62 237 0.0 0.0 0.00 0.00 0.00 99 1020.7
20260906140703 62 232 0.0 0.0 0.00 0.00 0.00 99 1020.8
20260906140159 62 243 0.0 0.0 0.00 0.00 0.00 99 1021.0
20260906135655 62 248 0.0 1.0 0.00 0.00 0.00 99 1020.7
20260906135151 62 244 0.0 0.0 0.00 0.00 0.00 99 1020.9
20260906134647 62 241 0.0 0.0 0.00 0.00 0.00 99 1020.8
20260906134142 62 218 0.0 0.0 0.00 0.00 0.00 99 1020.9
20260906133637 61 251 0.0 0.0 0.00 0.00 0.00 99 1020.8
20260906133132 61 255 0.0 0.0 0.00 0.00 0.00 99 1020.9
20260906132627 60 251 0.0 0.0 0.00 0.00 0.00 99 1020.7
20260906132123 60 264 0.0 0.0 0.00 0.00 0.00 99 1020.8
20260906131618 60 255 0.0 0.0 0.00 0.00 0.00 99 1020.7
20260906131113 60 257 0.0 0.0 0.00 0.00 0.00 99 1020.7
20260906130608 60 265 0.0 0.0 0.00 0.00 0.00 99 1020.7
20260906125555 59 259 0.0 0.0 0.00 0.00 0.00 99 1020.5
20260906125054 59 260 0.0 0.0 0.00 0.00 0.00 99 1020.5
20260906124550 58 254 0.0 0.0 0.00 0.00 0.00 99 1020.5
20260906124045 58 254 0.0 0.0 0.00 0.00 0.00 99 1020.5
20260906123544 58 254 0.0 0.0 0.00 0.00 0.00 99 1020.5
20260906123039 58 254 0.0 0.0 0.00 0.00 0.00 99 1020.6
20260906122533 58 254 0.0 0.0 0.00 0.00 0.00 99 1020.6
20260906122030 57 254 0.0 0.0 0.00 0.00 0.00 99 1020.5
20260906121525 57 253 0.0 0.0 0.00 0.00 0.00 99 1020.6
20260906121021 57 258 0.0 0.0 0.00 0.00 0.00 99 1020.4
20260906120516 57 260 0.0 0.0 0.00 0.00 0.00 99 1020.3
20260906120014 57 248 0.0 0.0 0.00 0.00 0.00 99 1020.2
20260906115513 57 248 0.0 0.0 0.00 0.00 0.00 99 1020.4
20260906115008 56 249 0.0 0.0 0.00 0.00 0.00 99 1020.1
20260906114502 56 249 0.0 0.0 0.00 0.00 0.00 99 1020.2
20260906113959 56 249 0.0 0.0 0.00 0.00 0.00 99 1019.9
20260906113457 56 249 0.0 0.0 0.00 0.00 0.00 99 1020.1
20260906112952 56 249 0.0 0.0 0.00 0.00 0.00 99 1020.0
20260906112448 56 249 0.0 0.0 0.00 0.00 0.00 99 1020.2
20260906111943 57 249 0.0 0.0 0.00 0.00 0.00 99 1020.2
20260906111442 57 249 0.0 0.0 0.00 0.00 0.00 99 1020.1
20260906110938 57 249 0.0 0.0 0.00 0.00 0.00 99 1020.1
20260906110433 57 249 0.0 0.0 0.00 0.00 0.00 99 1019.8
20260906105932 57 249 0.0 0.0 0.00 0.00 0.00 99 1020.0
20260906105428 57 249 0.0 0.0 0.00 0.00 0.00 99 1019.9
20260906104924 58 249 0.0 0.0 0.00 0.00 0.00 99 1019.9
20260906104421 58 248 0.0 0.0 0.00 0.00 0.00 99 1020.0
20260906103916 58 249 0.0 0.0 0.00 0.00 0.00 99 1019.9
20260906103414 58 253 0.0 0.0 0.00 0.00 0.00 99 1019.8
20260906102910 58 251 0.0 0.0 0.00 0.00 0.00 99 1019.9
20260906102409 58 253 0.0 0.0 0.00 0.00 0.00 99 1019.6
20260906101904 58 258 0.0 0.0 0.00 0.00 0.00 99 1019.9
20260906101359 58 256 0.0 0.0 0.00 0.00 0.00 99 1019.8
20260906100855 58 258 0.0 0.0 0.00 0.00 0.00 99 1019.9
20260906100354 58 261 0.0 0.0 0.00 0.00 0.00 99 1020.0
20260906095849 58 260 0.0 0.0 0.00 0.00 0.00 99 1019.9
20260906095344 58 260 0.0 0.0 0.00 0.00 0.00 99 1019.8
20260906094844 58 262 0.0 0.0 0.00 0.00 0.00 99 1019.6
20260906094339 57 262 0.0 0.0 0.00 0.00 0.00 99 1019.9
20260906093835 57 261 0.0 0.0 0.00 0.00 0.00 99 1019.8
20260906093331 57 263 0.0 0.0 0.00 0.00 0.00 99 1019.9
20260906092826 56 263 0.0 0.0 0.00 0.00 0.00 99 1019.8
20260906092326 56 263 0.0 0.0 0.00 0.00 0.00 99 1019.6
20260906091821 56 265 0.0 0.0 0.00 0.00 0.00 99 1019.6
20260906091317 56 265 0.0 0.0 0.00 0.00 0.00 99 1019.9
20260906090814 56 266 0.0 0.0 0.00 0.00 0.00 99 1019.8
20260906090313 56 267 0.0 0.0 0.00 0.00 0.00 99 1019.5
20260906085813 56 267 0.0 0.0 0.00 0.00 0.00 99 1019.6
20260906085311 56 267 0.0 0.0 0.00 0.00 0.00 99 1019.8
20260906084806 57 267 0.0 0.0 0.00 0.00 0.00 99 1019.6
20260906084300 57 267 0.0 0.0 0.00 0.00 0.00 99 1019.8
20260906083755 57 267 0.0 0.0 0.00 0.00 0.00 99 1019.8
20260906083251 57 233 0.0 0.0 0.00 0.00 0.00 99 1019.8
20260906082745 57 267 0.0 0.0 0.00 0.00 0.00 99 1019.5
20260906082240 57 264 0.0 0.0 0.00 0.00 0.00 99 1019.6
20260906081736 57 255 0.0 0.0 0.00 0.00 0.00 99 1019.6
20260906081231 57 264 0.0 0.0 0.00 0.00 0.00 99 1019.4
20260906080727 58 269 0.0 0.0 0.00 0.00 0.00 99 1019.5
20260906080224 58 255 0.0 0.0 0.00 0.00 0.00 99 1019.4
20260906075718 57 265 0.0 0.0 0.00 0.00 0.00 99 1019.3
20260906075212 57 271 0.0 0.0 0.00 0.00 0.00 99 1019.4
20260906074707 56 277 0.0 0.0 0.00 0.00 0.00 99 1019.5
20260906074207 55 277 0.0 0.0 0.00 0.00 0.00 99 1019.8
20260906073702 55 277 0.0 0.0 0.00 0.00 0.00 99 1019.8
20260906073157 55 277 0.0 0.0 0.00 0.00 0.00 99 1019.4
20260906072652 55 277 0.0 0.0 0.00 0.00 0.00 99 1019.3
20260906072148 55 277 0.0 0.0 0.00 0.00 0.00 99 1019.5
20260906071644 55 277 0.0 0.0 0.00 0.00 0.00 99 1019.5
20260906071143 55 277 0.0 0.0 0.00 0.00 0.00 99 1019.5
20260906070640 55 277 0.0 0.0 0.00 0.00 0.00 99 1019.5
20260906070136 55 277 0.0 0.0 0.00 0.00 0.00 99 1019.8
20260906065635 55 277 0.0 0.0 0.00 0.00 0.00 99 1019.5
20260906065131 55 277 0.0 0.0 0.00 0.00 0.00 99 1019.6
20260906064626 56 277 0.0 0.0 0.00 0.00 0.00 99 1019.5
20260906064121 55 277 0.0 0.0 0.00 0.00 0.00 99 1019.6
20260906063616 55 277 0.0 0.0 0.00 0.00 0.00 99 1019.6
20260906063112 56 277 0.0 0.0 0.00 0.00 0.00 99 1019.5
20260906062608 56 277 0.0 0.0 0.00 0.00 0.00 99 1019.4
20260906062106 56 277 0.0 0.0 0.00 0.00 0.00 99 1019.3
20260906061603 56 278 0.0 0.0 0.00 0.00 0.00 99 1019.5
20260906061102 55 278 0.0 0.0 0.00 0.00 0.00 99 1019.2
20260906060559 56 278 0.0 0.0 0.00 0.00 0.00 99 1019.3
20260906060056 56 278 0.0 0.0 0.00 0.00 0.00 99 1019.2
20260906055551 56 278 0.0 0.0 0.00 0.00 0.00 99 1019.1
20260906055046 56 278 0.0 0.0 0.00 0.00 0.00 99 1019.1
20260906054541 55 278 0.0 0.0 0.00 0.00 0.00 99 1019.1
20260906054036 56 277 0.0 0.0 0.00 0.00 0.00 99 1019.0
20260906053533 56 278 0.0 0.0 0.00 0.00 0.00 99 1019.0
20260906053028 56 278 0.0 0.0 0.00 0.00 0.00 99 1019.0
20260906052524 56 278 0.0 0.0 0.00 0.00 0.00 99 1018.9
20260906052021 57 278 0.0 0.0 0.00 0.00 0.00 99 1018.9
20260906051516 57 278 0.0 0.0 0.00 0.00 0.00 99 1018.9
20260906051011 56 278 0.0 0.0 0.00 0.00 0.00 99 1018.8
20260906050512 56 278 0.0 0.0 0.00 0.00 0.00 99 1018.8
20260906050006 56 278 0.0 0.0 0.00 0.00 0.00 99 1018.8
20260906045504 56 278 0.0 0.0 0.00 0.00 0.00 99 1019.0
20260906045000 56 278 0.0 0.0 0.00 0.00 0.00 99 1018.9
20260906044455 56 278 0.0 0.0 0.00 0.00 0.00 99 1018.7
20260906043951 56 278 0.0 0.0 0.00 0.00 0.00 99 1018.8
20260906043447 56 278 0.0 0.0 0.00 0.00 0.00 99 1018.5
20260906042943 56 278 0.0 0.0 0.00 0.00 0.00 99 1018.9
20260906042441 56 278 0.0 0.0 0.00 0.00 0.00 99 1018.9
20260906041936 56 278 0.0 0.0 0.00 0.00 0.00 99 1018.9
20260906041433 56 278 0.0 0.0 0.00 0.00 0.00 99 1019.0
20260906040932 56 278 0.0 0.0 0.00 0.00 0.00 99 1018.9
20260906040427 56 278 0.0 0.0 0.00 0.00 0.00 99 1018.9
20260906035923 56 278 0.0 0.0 0.00 0.00 0.00 99 1018.7
20260906035418 57 278 0.0 0.0 0.00 0.00 0.00 99 1018.8
20260906034913 56 278 0.0 0.0 0.00 0.00 0.00 99 1018.6
20260906034413 57 278 0.0 0.0 0.00 0.00 0.00 99 1018.8
20260906033909 57 278 0.0 0.0 0.00 0.00 0.00 99 1018.6
20260906033409 57 278 0.0 0.0 0.00 0.00 0.00 99 1018.8
20260906032904 58 278 0.0 0.0 0.00 0.00 0.00 99 1018.5
20260906032401 58 278 0.0 0.0 0.00 0.00 0.00 99 1018.7
20260906031855 58 278 0.0 0.0 0.00 0.00 0.00 99 1018.4
20260906031350 58 278 0.0 0.0 0.00 0.00 0.00 99 1018.5
20260906030845 58 278 0.0 0.0 0.00 0.00 0.00 99 1018.5
20260906030341 57 278 0.0 0.0 0.00 0.00 0.00 99 1018.7
20260906025835 58 278 0.0 0.0 0.00 0.00 0.00 99 1018.4
20260906025329 58 278 0.0 0.0 0.00 0.00 0.00 99 1018.5
20260906024828 58 278 0.0 0.0 0.00 0.00 0.00 99 1018.5
20260906024327 58 278 0.0 0.0 0.00 0.00 0.00 99 1018.5
20260906023823 58 278 0.0 0.0 0.00 0.00 0.00 99 1018.4
20260906023319 58 278 0.0 0.0 0.00 0.00 0.00 99 1018.4
20260906022814 58 278 0.0 0.0 0.00 0.00 0.00 99 1018.2
20260906022309 58 278 0.0 0.0 0.00 0.00 0.00 99 1018.3
20260906021805 58 278 0.0 0.0 0.00 0.00 0.00 99 1018.4
20260906021304 59 278 0.0 0.0 0.00 0.00 0.00 99 1018.4
20260906020758 60 278 0.0 0.0 0.00 0.00 0.00 99 1018.4
20260906020253 60 278 0.0 0.0 0.00 0.00 0.00 99 1018.5
20260906015753 60 278 0.0 0.0 0.00 0.00 0.00 99 1018.3
20260906015251 60 278 0.0 0.0 0.00 0.00 0.00 99 1018.4
20260906014746 60 273 0.0 0.0 0.00 0.00 0.00 99 1018.2
20260906014242 60 272 0.0 0.0 0.00 0.00 0.00 99 1018.3
20260906013737 60 274 0.0 0.0 0.00 0.00 0.00 98 1018.3
20260906013237 60 282 0.0 0.0 0.00 0.00 0.00 97 1018.1
20260906012732 60 282 0.0 0.0 0.00 0.00 0.00 96 1018.2
20260906012227 60 282 0.0 0.0 0.00 0.00 0.00 96 1018.1
20260906011723 61 275 0.0 0.0 0.00 0.00 0.00 95 1018.1
20260906011217 61 275 0.0 0.0 0.00 0.00 0.00 95 1018.0
20260906010713 61 274 0.0 0.0 0.00 0.00 0.00 94 1018.1
20260906010209 61 275 0.0 0.0 0.00 0.00 0.00 93 1017.8
20260906005708 62 282 0.0 0.0 0.00 0.00 0.00 92 1017.9
20260906005203 62 255 0.0 0.0 0.00 0.00 0.00 92 1017.9
20260906004701 62 255 0.0 0.0 0.00 0.00 0.00 92 1018.0
20260906004157 62 255 0.0 0.0 0.00 0.00 0.00 91 1018.0
20260906003652 63 255 0.0 0.0 0.00 0.00 0.00 90 1018.1
20260906003147 63 255 0.0 0.0 0.00 0.00 0.00 88 1018.0
20260906002642 64 255 0.0 0.0 0.00 0.00 0.00 87 1018.1
20260906002137 64 255 0.0 0.0 0.00 0.00 0.00 86 1018.1
20260906001632 65 263 0.0 0.0 0.00 0.00 0.00 85 1017.8
20260906001132 66 249 0.0 0.0 0.00 0.00 0.00 84 1017.9
20260906000628 67 249 0.0 0.0 0.00 0.00 0.00 82 1018.0
20260906000123 68 145 0.0 0.0 0.00 0.00 0.00 79 1018.1
20260905235621 70 251 0.0 0.0 0.00 0.00 0.00 77 1018.0
20260905235117 71 251 0.0 0.0 0.00 0.00 0.00 74 1017.8
20260905234612 72 251 0.0 0.0 0.00 0.00 0.00 71 1018.0
20260905234107 73 251 0.0 0.0 0.00 0.00 0.00 71 1018.0
20260905233602 74 250 0.0 1.0 0.00 0.00 0.00 68 1017.9
20260905233056 74 270 0.0 0.0 0.00 0.00 0.00 68 1017.9
20260905232552 74 275 0.0 1.0 0.00 0.00 0.00 69 1017.7
20260905232048 74 83 0.0 0.0 0.00 0.00 0.00 69 1017.9
20260905231543 76 187 1.0 2.0 0.00 0.00 0.00 65 1018.0
20260905231039 75 269 0.0 0.0 0.00 0.00 0.00 67 1017.8
20260905230538 75 271 0.0 0.0 0.00 0.00 0.00 67 1017.8
20260905230037 76 253 1.0 1.0 0.00 0.00 0.00 65 1018.0
20260905225531 75 281 0.0 0.0 0.00 0.00 0.00 66 1018.1
20260905225026 75 236 0.0 0.0 0.00 0.00 0.00 67 1018.0
20260905224521 75 273 0.0 0.0 0.00 0.00 0.00 66 1018.1
20260905224021 75 262 0.0 1.0 0.00 0.00 0.00 66 1018.0
20260905223519 75 251 1.0 1.0 0.00 0.00 0.00 65 1018.0
20260905223014 75 267 0.0 0.0 0.00 0.00 0.00 65 1018.2
20260905222514 74 97 1.0 2.0 0.00 0.00 0.00 67 1018.3
20260905222009 75 291 0.0 0.0 0.00 0.00 0.00 66 1018.1
20260905221506 75 272 0.0 0.0 0.00 0.00 0.00 65 1017.9
20260905221001 75 248 1.0 1.0 0.00 0.00 0.00 65 1017.6
20260905220457 75 338 0.0 0.0 0.00 0.00 0.00 65 1017.9
20260905215955 75 219 0.0 1.0 0.00 0.00 0.00 65 1018.0
20260905215446 76 235 1.0 1.0 0.00 0.00 0.00 63 1018.0
20260905214943 76 250 1.0 1.0 0.00 0.00 0.00 63 1018.2
20260905214438 76 271 0.0 1.0 0.00 0.00 0.00 64 1017.9
20260905213938 76 253 0.0 0.0 0.00 0.00 0.00 64 1017.9
20260905213434 75 250 1.0 2.0 0.00 0.00 0.00 63 1018.0
20260905212929 75 243 0.0 0.0 0.00 0.00 0.00 64 1018.1
20260905212424 73 258 1.0 1.0 0.00 0.00 0.00 66 1017.9
20260905211923 73 258 0.0 1.0 0.00 0.00 0.00 67 1017.9
20260905211419 73 250 0.0 0.0 0.00 0.00 0.00 69 1017.9
20260905210914 74 190 1.0 1.0 0.00 0.00 0.00 67 1018.0
20260905210409 74 195 0.0 1.0 0.00 0.00 0.00 67 1018.0
20260905205908 74 231 0.0 0.0 0.00 0.00 0.00 67 1018.0
20260905205403 74 246 0.0 1.0 0.00 0.00 0.00 67 1018.2
20260905204902 74 230 0.0 1.0 0.00 0.00 0.00 68 1018.1
20260905204358 73 214 1.0 1.0 0.00 0.00 0.00 67 1018.1
20260905203851 74 257 0.0 1.0 0.00 0.00 0.00 65 1018.5
20260905203347 74 238 0.0 1.0 0.00 0.00 0.00 66 1018.1
20260905202842 74 229 0.0 0.0 0.00 0.00 0.00 66 1018.3
20260905202337 74 125 1.0 1.0 0.00 0.00 0.00 70 1018.1
20260905201833 73 212 1.0 1.0 0.00 0.00 0.00 69 1018.1
20260905201328 73 206 1.0 2.0 0.00 0.00 0.00 66 1018.3
20260905200822 73 229 1.0 1.0 0.00 0.00 0.00 65 1018.2
20260905200319 74 232 1.0 1.0 0.00 0.00 0.00 67 1018.1
20260905195816 74 200 1.0 1.0 0.00 0.00 0.00 64 1018.1
20260905195311 73 207 1.0 1.0 0.00 0.00 0.00 68 1018.1
20260905194808 74 320 0.0 0.0 0.00 0.00 0.00 67 1018.0
20260905194306 74 234 1.0 1.0 0.00 0.00 0.00 65 1018.1
20260905193806 73 264 0.0 0.0 0.00 0.00 0.00 67 1018.1
20260905193301 73 204 2.0 3.0 0.00 0.00 0.00 66 1018.1
20260905192756 74 208 1.0 1.0 0.00 0.00 0.00 66 1018.4
20260905192253 74 224 2.0 3.0 0.00 0.00 0.00 64 1018.3
20260905191751 74 64 1.0 2.0 0.00 0.00 0.00 65 1018.5
20260905191250 74 225 1.0 1.0 0.00 0.00 0.00 68 1018.6
20260905190748 75 172 0.0 1.0 0.00 0.00 0.00 68 1018.4
20260905190243 76 251 1.0 1.0 0.00 0.00 0.00 67 1018.5
20260905185741 75 265 0.0 1.0 0.00 0.00 0.00 66 1018.4
20260905185237 75 256 0.0 1.0 0.00 0.00 0.00 68 1018.2
20260905184731 75 269 0.0 0.0 0.00 0.00 0.00 68 1018.4
20260905184230 75 280 0.0 1.0 0.00 0.00 0.00 68 1018.4
20260905183729 76 321 1.0 2.0 0.00 0.00 0.00 66 1018.4